Location: Great Snoring
(52.8667°N, 0.8833°E)
Time: 19:39:44
(UTC+00:00)

Meteor 2-15 Rocket - Pass Details

Date: 19 May 2025
Orbit: 938 x 956 km, 82.5° (Epoch: 23 June)

Event Time Altitude Azimuth Distance (km) Brightness Sun altitude
Rises 22:51:36 0° 349° (NNW) 3,639 9.4 -15.9°
Reaches altitude 10° 22:54:07 10° 351° (N) 2,687 8.2 -16.0°
Maximum altitude 23:00:16 78° 78° (ENE) 974 4.5 -16.3°
Enters shadow 23:04:01 25° 161° (SSE) 1,807 5.3 -16.4°
